sat.trackr.live / text

‹ back to catalog

STARLINK-35163

NORAD 65507 · 2025-198R

PAYLOAD ACTIVE UNKNOWN

§ Identity

Operator
Country
US
Launch date
2025-09-05
Launch site
AFETR
Launch vehicle
Mass (kg)
RCS (m²)

Purposes: comms

External: N2YO · Heavens-Above · Gunter

§ Orbital elements

Epoch: 2026-09-20T21:34:45.003936Z

Period
93.85 min
Inclination
53.1563°
Eccentricity
0.0001053
Mean motion
15.34432519 rev/d
Perigee alt
461.9 km
Apogee alt
463.3 km
Semi-major
6,840.7 km
B*
6.2116e-4
RAAN
81.7073°
Arg perigee
85.4501°
Mean anomaly
274.6622°
Rev number
5,854

§ Raw data

STARLINK-351631 65507U 25198R   26263.89913199  .00020690  00000+0  62116-3 0  99912 65507  53.1563  81.7073 0001053  85.4501 274.6622 15.34432519 58544

JSON: /api/v1/satellites/65507 · /tle

For live sub-satellite position, see the globe view (requires WebGL).

§ Visibility from observer

Set your observer location to see the next 7 days of passes ≥ 10°. The values pass through the URL so the page stays shareable.

No JS? Fill the form by hand. The geolocation button needs JavaScript.